| time (UTC) | temp C | wind direction | speed KPH | gust KPH | rain 1hr cm | rain 24hr cm | rain mn cm | humidity % | barometer mb |
| 20260502193012 | 20 | 30 | 8.0 | 19.3 | 0.00 | 0.00 | 0.00 | 30 | 1017.9 |
| 20260502191516 | 19 | 320 | 4.8 | 12.9 | 0.00 | 0.00 | 0.00 | 28 | 1018.0 |
| 20260502190023 | 18 | 90 | 8.0 | 19.3 | 0.00 | 0.00 | 0.00 | 30 | 1018.3 |
| 20260502183024 | 18 | 34 | 6.4 | 14.5 | 0.00 | 0.00 | 0.00 | 31 | 1018.7 |
| 20260502181518 | 18 | 27 | 9.7 | 17.7 | 0.00 | 0.00 | 0.00 | 31 | 1018.9 |
| 20260502163033 | 17 | 104 | 4.8 | 11.3 | 0.00 | 0.00 | 0.00 | 31 | 1019.2 |
| 20260502161526 | 16 | 285 | 6.4 | 12.9 | 0.00 | 0.00 | 0.00 | 32 | 1019.2 |
| 20260502151504 | 13 | 226 | 12.9 | 20.9 | 0.00 | 0.00 | 0.00 | 36 | 1019.1 |
| 20260502123013 | 2 | 270 | 8.0 | 12.9 | 0.00 | 0.00 | 0.00 | 60 | 1018.5 |
| 20260502121512 | 2 | 273 | 8.0 | 12.9 | 0.00 | 0.00 | 0.00 | 63 | 1018.5 |
| 20260502114507 | 2 | 272 | 8.0 | 14.5 | 0.00 | 0.00 | 0.00 | 63 | 1018.4 |
| 20260502113006 | 1 | 274 | 6.4 | 14.5 | 0.00 | 0.00 | 0.00 | 65 | 1018.4 |
| 20260502111511 | 1 | 250 | 4.8 | 9.7 | 0.00 | 0.00 | 0.00 | 66 | 1018.4 |
| 20260502104520 | 2 | 269 | 6.4 | 9.7 | 0.00 | 0.00 | 0.00 | 63 | 1018.3 |
| 20260502103014 | 2 | 263 | 8.0 | 14.5 | 0.00 | 0.00 | 0.00 | 60 | 1018.2 |
| 20260502101534 | 2 | 263 | 8.0 | 14.5 | 0.00 | 0.00 | 0.00 | 59 | 1018.2 |
| 20260502091514 | 2 | 286 | 9.7 | 14.5 | 0.00 | 0.00 | 0.00 | 59 | 1018.0 |
| 20260502071520 | 3 | 280 | 6.4 | 11.3 | 0.00 | 0.00 | 0.00 | 57 | 1018.3 |
| 20260502070022 | 3 | 278 | 4.8 | 11.3 | 0.00 | 0.00 | 0.00 | 57 | 1018.3 |
| 20260502064514 | 3 | 288 | 4.8 | 9.7 | 0.00 | 0.00 | 0.00 | 58 | 1018.4 |
| 20260502061522 | 5 | 265 | 6.4 | 11.3 | 0.00 | 0.00 | 0.00 | 54 | 1018.3 |
| 20260502060010 | 5 | 275 | 6.4 | 9.7 | 0.00 | 0.00 | 0.00 | 54 | 1018.2 |
| 20260502054510 | 5 | 259 | 4.8 | 8.0 | 0.00 | 0.00 | 0.00 | 53 | 1018.4 |
| 20260502053013 | 5 | 273 | 4.8 | 9.7 | 0.00 | 0.00 | 0.00 | 52 | 1018.5 |
| 20260502051517 | 5 | 286 | 4.8 | 9.7 | 0.00 | 0.00 | 0.00 | 53 | 1018.5 |
| 20260502050022 | 5 | 285 | 4.8 | 8.0 | 0.00 | 0.00 | 0.00 | 52 | 1018.5 |
| 20260502044510 | 6 | 284 | 4.8 | 8.0 | 0.00 | 0.00 | 0.00 | 48 | 1018.5 |
| 20260502043012 | 7 | 283 | 4.8 | 8.0 | 0.00 | 0.00 | 0.00 | 46 | 1018.5 |
| 20260502041513 | 7 | 287 | 4.8 | 8.0 | 0.00 | 0.00 | 0.00 | 48 | 1018.4 |
| 20260502040017 | 7 | 278 | 3.2 | 6.4 | 0.00 | 0.00 | 0.00 | 41 | 1018.4 |
| 20260502034527 | 7 | 275 | 3.2 | 9.7 | 0.00 | 0.00 | 0.00 | 38 | 1018.2 |
| 20260502033008 | 8 | 287 | 6.4 | 9.7 | 0.00 | 0.00 | 0.00 | 36 | 1018.2 |
| 20260502031512 | 10 | 298 | 4.8 | 8.0 | 0.00 | 0.00 | 0.00 | 33 | 1018.1 |
| 20260502030014 | 10 | 272 | 4.8 | 8.0 | 0.00 | 0.00 | 0.00 | 34 | 1017.8 |
| 20260502024519 | 10 | 288 | 4.8 | 8.0 | 0.00 | 0.00 | 0.00 | 35 | 1017.6 |
| 20260502023024 | 13 | 300 | 4.8 | 8.0 | 0.00 | 0.00 | 0.00 | 30 | 1017.3 |
| 20260502021525 | 16 | 262 | 4.8 | 9.7 | 0.00 | 0.00 | 0.00 | 23 | 1017.2 |
| 20260502020014 | 18 | 266 | 6.4 | 12.9 | 0.00 | 0.00 | 0.00 | 19 | 1017.2 |
| 20260502014519 | 20 | 253 | 6.4 | 11.3 | 0.00 | 0.00 | 0.00 | 18 | 1017.1 |
| 20260502013021 | 20 | 251 | 6.4 | 16.1 | 0.00 | 0.00 | 0.00 | 17 | 1017.2 |
| 20260502011525 | 21 | 250 | 8.0 | 17.7 | 0.00 | 0.00 | 0.00 | 16 | 1017.1 |
| 20260502010026 | 21 | 254 | 8.0 | 16.1 | 0.00 | 0.00 | 0.00 | 16 | 1017.2 |
| 20260502004514 | 21 | 261 | 8.0 | 12.9 | 0.00 | 0.00 | 0.00 | 17 | 1017.3 |
| 20260502003016 | 21 | 200 | 8.0 | 14.5 | 0.00 | 0.00 | 0.00 | 16 | 1017.4 |
| 20260502001521 | 21 | 267 | 8.0 | 16.1 | 0.00 | 0.00 | 0.00 | 17 | 1017.5 |
| 20260502000025 | 21 | 217 | 11.3 | 16.1 | 0.00 | 0.00 | 0.00 | 16 | 1017.5 |
| 20260501234525 | 21 | 212 | 8.0 | 14.5 | 0.00 | 0.00 | 0.00 | 16 | 1017.7 |
| 20260501233019 | 21 | 200 | 6.4 | 17.7 | 0.00 | 0.00 | 0.00 | 16 | 1017.6 |
| 20260501231520 | 22 | 204 | 3.2 | 17.7 | 0.00 | 0.00 | 0.00 | 17 | 1017.6 |
| 20260501230034 | 21 | 207 | 9.7 | 14.5 | 0.00 | 0.00 | 0.00 | 17 | 1017.6 |
| 20260501224509 | 21 | 285 | 6.4 | 14.5 | 0.00 | 0.00 | 0.00 | 17 | 1017.7 |
| 20260501223014 | 21 | 224 | 4.8 | 17.7 | 0.00 | 0.00 | 0.00 | 17 | 1017.6 |
| 20260501221516 | 20 | 226 | 3.2 | 17.7 | 0.00 | 0.00 | 0.00 | 18 | 1018.0 |
| 20260501220005 | 21 | 291 | 6.4 | 19.3 | 0.00 | 0.00 | 0.00 | 17 | 1018.2 |
| 20260501214508 | 21 | 188 | 4.8 | 14.5 | 0.00 | 0.00 | 0.00 | 17 | 1018.3 |
| 20260501213011 | 21 | 243 | 8.0 | 14.5 | 0.00 | 0.00 | 0.00 | 18 | 1018.6 |
| 20260501211516 | 20 | 283 | 4.8 | 11.3 | 0.00 | 0.00 | 0.00 | 18 | 1018.6 |
| 20260501210018 | 20 | 279 | 3.2 | 16.1 | 0.00 | 0.00 | 0.00 | 19 | 1018.7 |
| 20260501204505 | 20 | 243 | 4.8 | 19.3 | 0.00 | 0.00 | 0.00 | 20 | 1018.8 |
| 20260501203010 | 20 | 314 | 11.3 | 19.3 | 0.00 | 0.00 | 0.00 | 22 | 1018.7 |
| 20260501201512 | 20 | 255 | 12.9 | 20.9 | 0.00 | 0.00 | 0.00 | 20 | 1018.8 |
| 20260501200017 | 19 | 264 | 4.8 | 17.7 | 0.00 | 0.00 | 0.00 | 22 | 1018.8 |
| 20260501194521 | 18 | 207 | 6.4 | 14.5 | 0.00 | 0.00 | 0.00 | 21 | 1018.9 |